QPF
0.02 0.01 0.01 0.01 0.01 0.02 0.01 0.02 0.02 0.02 0.02 0.03 0.04 0.05 0.05 0.07 0.07 0.06 0.05 0.04 0.03 0.02 0.02 0.02 0.02 0.02 0.02 0.03 0.05 0.05 0.06 0.06 0.06 0.06 0.04 0.04 0.05 0.05 0.05 0.04 0.03 0.03 0.02
0.02 0.01 0.01 0.01 0.01 0.01 0.01 0.01 0.01 0.02 0.02 0.03 0.04 0.04 0.05 0.04 0.04 0.05 0.05 0.03 0.03 0.02 0.02 0.02 0.02 0.02 0.03 0.03 0.04 0.05 0.05 0.05 0.04 0.04 0.03 0.03 0.04 0.05 0.05 0.04 0.02 0.02 0.02
0.03 0.02 0.01 0.01 0.01 0.01 0.01 0.01 0.01 0.01 0.02 0.03 0.02 0.02 0.03 0.02 0.02 0.03 0.02 0.01 0.01 0.01 0.01 0.01 0.01 0.02 0.02 0.03 0.04 0.05 0.05 0.06 0.04 0.03 0.03 0.04 0.05 0.06 0.05 0.04 0.03 0.02 0.02
0.02 0.02 0.01 0.00 0.01 0.01 0.01 0.01 0.01 0.01 0.02 0.02 0.02 0.02 0.02 0.02 0.02 0.01 0.01 0.00 0.01 0.01 0.01 0.01 0.01 0.01 0.02 0.02 0.04 0.05 0.06 0.05 0.05 0.04 0.04 0.04 0.05 0.07 0.08 0.07 0.05 0.03 0.02
0.02 0.02 0.01 0.01 0.01 0.01 0.01 0.02 0.02 0.01 0.01 0.01 0.01 0.01 0.01 0.01 0.01 0.01 0.01 0.01 0.01 0.01 0.01 0.00 0.00 0.01 0.02 0.03 0.04 0.04 0.05 0.05 0.04 0.03 0.03 0.04 0.04 0.05 0.06 0.06 0.05 0.05 0.03
0.03 0.02 0.02 0.02 0.02 0.02 0.02 0.02 0.02 0.01 0.01 0.00 0.01 0.01 0.01 0.01 0.01 0.01 0.02 0.01 0.02 0.02 0.01 0.01 0.00 0.00 0.01 0.02 0.02 0.02 0.03 0.03 0.03 0.03 0.03 0.03 0.03 0.04 0.04 0.05 0.05 0.06 0.05
0.03 0.03 0.03 0.02 0.02 0.02 0.01 0.01 0.01 0.01 0.01 0.00 0.00 0.01 0.01 0.01 0.01 0.01 0.01 0.01 0.02 0.02 0.02 0.01 0.01 0.00 0.01 0.02 0.02 0.01 0.02 0.02 0.02 0.02 0.02 0.02 0.02 0.03 0.04 0.04 0.03 0.04 0.05
0.04 0.04 0.04 0.03 0.02 0.02 0.02 0.01 0.01 0.01 0.01 0.01 0.01 0.01 0.01 0.01 0.01 0.01 0.01 0.01 0.02 0.01 0.01 0.01 0.01 0.01 0.01 0.02 0.02 0.02 0.02 0.02 0.02 0.02 0.01 0.02 0.03 0.03 0.04 0.04 0.03 0.03 0.03
0.08 0.06 0.04 0.03 0.02 0.03 0.02 0.02 0.02 0.01 0.01 0.01 0.01 0.01 0.01 0.01 0.02 0.02 0.01 0.01 0.01 0.01 0.01 0.01 0.01 0.01 0.02 0.02 0.02 0.03 0.02 0.02 0.02 0.02 0.02 0.02 0.03 0.02 0.02 0.03 0.03 0.04 0.04
0.08 0.06 0.05 0.03 0.03 0.03 0.03 0.02 0.02 0.02 0.02 0.02 0.02 0.02 0.03 0.03 0.03 0.03 0.02 0.01 0.01 0.01 0.01 0.01 0.01 0.01 0.01 0.02 0.03 0.04 0.04 0.03 0.02 0.02 0.02 0.02 0.02 0.01 0.01 0.01 0.02 0.03 0.04
0.05 0.04 0.03 0.03 0.03 0.03 0.03 0.02 0.02 0.02 0.02 0.02 0.02 0.02 0.01 0.01 0.01 0.01 0.01 0.01 0.01 0.01 0.01 0.01 0.01 0.01 0.01 0.01 0.01 0.02 0.03 0.05 0.05 0.05 0.05 0.04 0.02 0.01 0.01 0.01 0.02 0.03 0.04
0.04 0.02 0.03 0.03 0.02 0.02 0.01 0.01 0.01 0.01 0.01 0.01 0.01 0.01 0.01 0.01 0.01 0.01 0.01 0.01 0.01 0.01 0.01 0.01 0.01 0.01 0.01 0.01 0.01 0.01 0.03 0.04 0.05 0.06 0.06 0.06 0.05 0.03 0.01 0.01 0.02 0.03 0.03
0.03 0.03 0.03 0.03 0.01 0.01 0.00 0.00 0.00 0.00 0.00 0.01 0.01 0.01 0.01 0.01 0.02 0.02 0.01 0.01 0.01 0.01 0.01 0.02 0.02 0.02 0.01 0.00 0.01 0.01 0.02 0.03 0.03 0.02 0.02 0.03 0.03 0.03 0.02 0.01 0.01 0.02 0.02
0.02 0.02 0.02 0.01 0.00 0.00 0.00 0.00 0.00 0.00 0.00 0.00 0.00 0.01 0.01 0.01 0.01 0.02 0.02 0.02 0.01 0.00 0.01 0.01 0.02 0.02 0.01 0.01 0.01 0.02 0.01 0.01 0.01 0.01 0.01 0.01 0.01 0.02 0.02 0.02 0.01 0.02 0.01
0.01 0.01 0.01 0.01 0.00 0.00 0.00 0.00 0.00 0.00 0.00 0.00 0.00 0.00 0.00 0.00 0.00 0.01 0.01 0.02 0.02 0.01 0.01 0.01 0.01 0.01 0.01 0.01 0.01 0.03 0.04 0.03 0.03 0.02 0.02 0.01 0.01 0.01 0.02 0.02 0.01 0.01 0.01
0.02 0.01 0.01 0.01 0.01 0.01 0.00 0.00 0.00 0.00 0.00 0.00 0.00 0.00 0.00 0.00 0.00 0.00 0.00 0.01 0.01 0.01 0.01 0.01 0.01 0.01 0.01 0.01 0.01 0.02 0.03 0.03 0.04 0.03 0.03 0.02 0.01 0.01 0.02 0.02 0.01 0.01 0.01
0.02 0.02 0.01 0.01 0.01 0.01 0.00 0.00 0.00 0.00 0.00 0.00 0.00 0.00 0.00 0.00 0.00 0.00 0.00 0.00 0.00 0.00 0.00 0.01 0.01 0.01 0.01 0.01 0.01 0.01 0.02 0.02 0.02 0.03 0.02 0.01 0.01 0.01 0.02 0.02 0.01 0.02 0.02
0.02 0.02 0.02 0.01 0.01 0.01 0.00 0.00 0.00 0.00 0.00 0.00 0.00 0.00 0.00 0.00 0.00 0.00 0.00 0.00 0.01 0.01 0.00 0.01 0.01 0.01 0.01 0.01 0.01 0.01 0.02 0.02 0.02 0.02 0.02 0.01 0.01 0.01 0.01 0.02 0.02 0.01 0.01
0.03 0.03 0.03 0.03 0.02 0.01 0.01 0.00 0.00 0.00 0.00 0.00 0.00 0.00 0.01 0.01 0.01 0.01 0.01 0.01 0.01 0.01 0.01 0.01 0.01 0.01 0.01 0.01 0.02 0.02 0.03 0.03 0.02 0.02 0.02 0.01 0.01 0.01 0.01 0.01 0.01 0.01 0.01
0.04 0.04 0.04 0.03 0.02 0.01 0.01 0.01 0.00 0.01 0.01 0.01 0.00 0.01 0.01 0.01 0.01 0.01 0.01 0.01 0.01 0.02 0.02 0.01 0.01 0.01 0.01 0.01 0.02 0.02 0.02 0.02 0.02 0.03 0.03 0.02 0.02 0.02 0.02 0.01 0.01 0.01 0.01
0.04 0.04 0.03 0.02 0.01 0.01 0.01 0.01 0.00 0.01 0.01 0.01 0.01 0.02 0.02 0.01 0.01 0.01 0.02 0.02 0.03 0.03 0.03 0.02 0.02 0.02 0.02 0.03 0.03 0.02 0.03 0.03 0.04 0.03 0.03 0.02 0.02 0.02 0.01 0.01 0.01 0.01 0.01
0.03 0.03 0.02 0.01 0.01 0.00 0.01 0.01 0.01 0.01 0.01 0.01 0.01 0.02 0.02 0.01 0.01 0.01 0.02 0.03 0.03 0.03 0.03 0.03 0.03 0.03 0.03 0.03 0.04 0.05 0.05 0.05 0.03 0.03 0.03 0.03 0.03 0.02 0.02 0.02 0.02 0.01 0.01
0.02 0.02 0.02 0.01 0.01 0.00 0.01 0.01 0.01 0.01 0.02 0.02 0.01 0.01 0.01 0.01 0.01 0.01 0.02 0.02 0.02 0.03 0.03 0.03 0.03 0.04 0.04 0.04 0.05 0.05 0.04 0.04 0.04 0.04 0.03 0.03 0.03 0.03 0.03 0.02 0.02 0.02 0.01
0.01 0.01 0.01 0.01 0.01 0.00 0.00 0.00 0.00 0.01 0.01 0.00 0.00 0.00 0.00 0.00 0.00 0.01 0.01 0.01 0.01 0.02 0.02 0.02 0.02 0.03 0.03 0.03 0.03 0.03 0.03 0.03 0.04 0.04 0.04 0.03 0.02 0.02 0.02 0.02 0.02 0.02 0.01
0.00 0.00 0.00 0.00 0.00 0.00 0.00 0.00 0.00 0.00 0.00 0.00 0.00 0.00 0.00 0.00 0.00 0.01 0.01 0.01 0.01 0.01 0.01 0.01 0.01 0.01 0.02 0.02 0.02 0.02 0.02 0.02 0.02 0.02 0.02 0.01 0.01 0.01 0.01 0.01 0.01 0.01 0.01
0.00 0.00 0.00 0.00 0.00 0.00 0.00 0.00 0.00 0.00 0.00 0.00 0.00 0.00 0.00 0.00 0.00 0.01 0.01 0.01 0.01 0.00 0.01 0.02 0.02 0.01 0.01 0.01 0.02 0.02 0.02 0.01 0.01 0.01 0.01 0.01 0.01 0.01 0.01 0.01 0.01 0.01 0.01
MSLP
1014.04 1014.33 1014.61 1014.87 1015.06 1015.18 1015.24 1015.25 1015.23 1015.21 1015.20 1015.20 1015.22 1015.24 1015.24 1015.23 1015.20 1015.14 1015.08 1015.03 1015.01 1015.03 1015.09 1015.18 1015.28 1015.35 1015.35 1015.24 1015.00 1014.60 1014.04 1013.32 1012.49 1011.57 1010.61 1009.67 1008.80 1008.07 1007.52 1007.19 1007.10 1007.25 1007.64
1014.29 1014.55 1014.79 1015.00 1015.16 1015.25 1015.29 1015.29 1015.27 1015.24 1015.23 1015.22 1015.23 1015.24 1015.24 1015.22 1015.18 1015.11 1015.02 1014.94 1014.88 1014.84 1014.84 1014.87 1014.90 1014.93 1014.92 1014.84 1014.68 1014.40 1013.99 1013.47 1012.83 1012.09 1011.30 1010.48 1009.68 1008.95 1008.34 1007.89 1007.63 1007.60 1007.79
1014.46 1014.68 1014.88 1015.05 1015.16 1015.21 1015.22 1015.20 1015.16 1015.13 1015.11 1015.11 1015.13 1015.15 1015.16 1015.15 1015.11 1015.05 1014.96 1014.85 1014.75 1014.66 1014.59 1014.54 1014.50 1014.48 1014.45 1014.38 1014.28 1014.10 1013.84 1013.49 1013.04 1012.49 1011.86 1011.16 1010.42 1009.70 1009.04 1008.48 1008.08 1007.87 1007.88
1014.54 1014.74 1014.90 1015.02 1015.08 1015.10 1015.06 1015.01 1014.95 1014.91 1014.89 1014.90 1014.93 1014.97 1015.00 1015.01 1015.00 1014.94 1014.86 1014.74 1014.61 1014.47 1014.34 1014.22 1014.12 1014.03 1013.97 1013.91 1013.84 1013.74 1013.60 1013.40 1013.10 1012.72 1012.22 1011.63 1010.96 1010.26 1009.56 1008.92 1008.40 1008.04 1007.90
1014.56 1014.74 1014.87 1014.95 1014.97 1014.94 1014.87 1014.78 1014.70 1014.64 1014.61 1014.62 1014.66 1014.71 1014.77 1014.81 1014.82 1014.79 1014.72 1014.61 1014.46 1014.29 1014.11 1013.94 1013.78 1013.64 1013.54 1013.47 1013.41 1013.36 1013.30 1013.20 1013.03 1012.76 1012.38 1011.88 1011.28 1010.60 1009.88 1009.19 1008.58 1008.12 1007.86
1014.54 1014.71 1014.83 1014.88 1014.86 1014.79 1014.68 1014.56 1014.45 1014.37 1014.33 1014.33 1014.37 1014.43 1014.50 1014.56 1014.60 1014.59 1014.54 1014.45 1014.31 1014.13 1013.93 1013.73 1013.52 1013.35 1013.20 1013.10 1013.04 1013.01 1012.99 1012.95 1012.85 1012.67 1012.37 1011.95 1011.40 1010.76 1010.05 1009.34 1008.68 1008.15 1007.81
1014.53 1014.70 1014.80 1014.83 1014.79 1014.69 1014.56 1014.41 1014.27 1014.17 1014.10 1014.09 1014.11 1014.16 1014.23 1014.30 1014.35 1014.38 1014.35 1014.29 1014.17 1014.00 1013.81 1013.59 1013.37 1013.16 1012.98 1012.84 1012.76 1012.71 1012.69 1012.66 1012.60 1012.47 1012.24 1011.88 1011.39 1010.79 1010.11 1009.41 1008.75 1008.19 1007.80
1014.58 1014.74 1014.83 1014.85 1014.79 1014.67 1014.52 1014.36 1014.20 1014.07 1013.98 1013.93 1013.93 1013.96 1014.01 1014.08 1014.13 1014.17 1014.17 1014.13 1014.04 1013.91 1013.73 1013.51 1013.28 1013.05 1012.83 1012.66 1012.53 1012.44 1012.39 1012.35 1012.30 1012.19 1012.00 1011.69 1011.27 1010.73 1010.11 1009.46 1008.83 1008.27 1007.87
1014.70 1014.84 1014.92 1014.92 1014.86 1014.74 1014.58 1014.41 1014.24 1014.10 1013.98 1013.90 1013.86 1013.85 1013.88 1013.92 1013.96 1014.00 1014.01 1014.00 1013.93 1013.82 1013.66 1013.45 1013.21 1012.95 1012.70 1012.47 1012.28 1012.14 1012.04 1011.97 1011.90 1011.81 1011.65 1011.40 1011.05 1010.60 1010.07 1009.49 1008.92 1008.41 1008.02
1014.88 1015.00 1015.06 1015.05 1014.99 1014.87 1014.72 1014.55 1014.38 1014.23 1014.09 1013.98 1013.90 1013.85 1013.83 1013.83 1013.85 1013.87 1013.88 1013.87 1013.82 1013.72 1013.56 1013.35 1013.09 1012.80 1012.50 1012.21 1011.96 1011.74 1011.58 1011.47 1011.37 1011.28 1011.16 1010.98 1010.72 1010.38 1009.96 1009.49 1009.02 1008.57 1008.22
1015.09 1015.18 1015.21 1015.20 1015.14 1015.03 1014.90 1014.74 1014.58 1014.42 1014.26 1014.12 1014.01 1013.91 1013.84 1013.80 1013.77 1013.76 1013.75 1013.72 1013.66 1013.55 1013.39 1013.15 1012.86 1012.53 1012.17 1011.81 1011.47 1011.19 1010.96 1010.79 1010.68 1010.59 1010.51 1010.41 1010.25 1010.03 1009.75 1009.42 1009.06 1008.71 1008.42
1015.30 1015.35 1015.36 1015.33 1015.26 1015.17 1015.05 1014.92 1014.77 1014.61 1014.44 1014.28 1014.13 1013.98 1013.87 1013.77 1013.69 1013.64 1013.58 1013.52 1013.43 1013.29 1013.09 1012.82 1012.49 1012.09 1011.66 1011.23 1010.82 1010.45 1010.16 1009.95 1009.81 1009.74 1009.71 1009.68 1009.64 1009.56 1009.42 1009.23 1009.01 1008.77 1008.56
1015.46 1015.47 1015.45 1015.40 1015.34 1015.25 1015.15 1015.02 1014.88 1014.72 1014.55 1014.37 1014.18 1014.00 1013.83 1013.68 1013.55 1013.44 1013.34 1013.23 1013.10 1012.91 1012.67 1012.35 1011.96 1011.51 1011.02 1010.51 1010.02 1009.59 1009.24 1008.99 1008.84 1008.78 1008.80 1008.85 1008.92 1008.96 1008.97 1008.93 1008.85 1008.73 1008.60
1015.56 1015.53 1015.48 1015.41 1015.33 1015.24 1015.14 1015.02 1014.88 1014.72 1014.53 1014.32 1014.10 1013.88 1013.67 1013.47 1013.29 1013.13 1012.98 1012.83 1012.65 1012.43 1012.14 1011.78 1011.35 1010.84 1010.30 1009.73 1009.19 1008.71 1008.32 1008.04 1007.87 1007.82 1007.87 1007.99 1008.15 1008.30 1008.44 1008.53 1008.58 1008.57 1008.54
1015.59 1015.52 1015.44 1015.35 1015.25 1015.15 1015.03 1014.90 1014.74 1014.56 1014.35 1014.11 1013.86 1013.60 1013.35 1013.11 1012.89 1012.69 1012.51 1012.32 1012.11 1011.86 1011.55 1011.16 1010.70 1010.18 1009.61 1009.02 1008.45 1007.94 1007.52 1007.22 1007.04 1006.99 1007.06 1007.21 1007.43 1007.66 1007.89 1008.08 1008.23 1008.32 1008.37
1015.55 1015.47 1015.37 1015.25 1015.13 1014.99 1014.84 1014.68 1014.49 1014.27 1014.02 1013.75 1013.46 1013.17 1012.88 1012.61 1012.37 1012.15 1011.94 1011.73 1011.51 1011.26 1010.95 1010.57 1010.12 1009.61 1009.05 1008.47 1007.91 1007.40 1006.97 1006.66 1006.47 1006.41 1006.47 1006.63 1006.85 1007.12 1007.39 1007.64 1007.85 1008.01 1008.12
1015.48 1015.39 1015.27 1015.14 1014.98 1014.81 1014.62 1014.41 1014.17 1013.90 1013.61 1013.29 1012.97 1012.64 1012.32 1012.03 1011.77 1011.53 1011.32 1011.12 1010.91 1010.67 1010.39 1010.05 1009.65 1009.19 1008.68 1008.15 1007.63 1007.15 1006.73 1006.42 1006.21 1006.13 1006.16 1006.28 1006.48 1006.73 1006.99 1007.25 1007.48 1007.67 1007.82
1015.38 1015.31 1015.19 1015.04 1014.86 1014.66 1014.42 1014.16 1013.86 1013.54 1013.19 1012.83 1012.46 1012.10 1011.76 1011.45 1011.17 1010.93 1010.72 1010.53 1010.34 1010.13 1009.90 1009.62 1009.29 1008.90 1008.48 1008.03 1007.58 1007.15 1006.77 1006.47 1006.26 1006.14 1006.12 1006.19 1006.32 1006.51 1006.72 1006.94 1007.15 1007.34 1007.50
1015.27 1015.22 1015.12 1014.98 1014.79 1014.55 1014.28 1013.97 1013.62 1013.25 1012.85 1012.44 1012.03 1011.64 1011.27 1010.93 1010.64 1010.39 1010.18 1009.99 1009.82 1009.65 1009.46 1009.25 1009.00 1008.70 1008.38 1008.03 1007.67 1007.32 1007.00 1006.72 1006.51 1006.36 1006.28 1006.28 1006.33 1006.43 1006.56 1006.71 1006.87 1007.02 1007.17
1015.13 1015.12 1015.06 1014.93 1014.75 1014.51 1014.21 1013.87 1013.48 1013.07 1012.63 1012.18 1011.74 1011.31 1010.92 1010.55 1010.24 1009.96 1009.73 1009.53 1009.36 1009.21 1009.05 1008.89 1008.71 1008.51 1008.28 1008.03 1007.77 1007.51 1007.26 1007.03 1006.83 1006.66 1006.54 1006.46 1006.43 1006.43 1006.47 1006.54 1006.63 1006.74 1006.85
1014.94 1015.00 1014.98 1014.89 1014.72 1014.49 1014.19 1013.84 1013.43 1013.00 1012.54 1012.07 1011.60 1011.15 1010.72 1010.33 1009.97 1009.66 1009.39 1009.15 1008.95 1008.78 1008.63 1008.49 1008.36 1008.22 1008.08 1007.93 1007.77 1007.60 1007.43 1007.25 1007.08 1006.92 1006.77 1006.64 1006.54 1006.46 1006.42 1006.40 1006.42 1006.47 1006.56
1014.70 1014.82 1014.85 1014.80 1014.67 1014.46 1014.18 1013.83 1013.43 1013.00 1012.54 1012.06 1011.58 1011.11 1010.66 1010.23 1009.83 1009.46 1009.13 1008.83 1008.58 1008.36 1008.18 1008.03 1007.91 1007.81 1007.73 1007.65 1007.58 1007.50 1007.40 1007.30 1007.17 1007.04 1006.89 1006.74 1006.59 1006.46 1006.36 1006.28 1006.24 1006.24 1006.29
1014.40 1014.56 1014.64 1014.64 1014.54 1014.36 1014.11 1013.78 1013.41 1012.99 1012.54 1012.08 1011.61 1011.13 1010.66 1010.21 1009.76 1009.33 1008.93 1008.56 1008.23 1007.94 1007.70 1007.51 1007.37 1007.27 1007.22 1007.20 1007.19 1007.18 1007.17 1007.14 1007.08 1006.98 1006.86 1006.72 1006.57 1006.41 1006.27 1006.16 1006.08 1006.04 1006.06
1014.04 1014.24 1014.35 1014.37 1014.30 1014.14 1013.91 1013.62 1013.27 1012.88 1012.47 1012.03 1011.58 1011.12 1010.65 1010.18 1009.70 1009.23 1008.76 1008.32 1007.90 1007.54 1007.23 1006.98 1006.80 1006.69 1006.64 1006.65 1006.68 1006.74 1006.79 1006.83 1006.83 1006.79 1006.72 1006.60 1006.46 1006.31 1006.16 1006.03 1005.93 1005.87 1005.86
1013.64 1013.84 1013.96 1013.99 1013.93 1013.78 1013.56 1013.29 1012.96 1012.61 1012.23 1011.84 1011.43 1011.00 1010.55 1010.09 1009.60 1009.10 1008.60 1008.11 1007.63 1007.20 1006.83 1006.53 1006.30 1006.17 1006.11 1006.12 1006.18 1006.28 1006.38 1006.46 1006.52 1006.54 1006.50 1006.42 1006.30 1006.16 1006.02 1005.88 1005.77 1005.70 1005.67
1013.22 1013.41 1013.50 1013.51 1013.43 1013.27 1013.04 1012.77 1012.47 1012.14 1011.80 1011.45 1011.09 1010.71 1010.31 1009.88 1009.43 1008.94 1008.44 1007.93 1007.43 1006.97 1006.56 1006.22 1005.97 1005.81 1005.73 1005.74 1005.81 1005.92 1006.04 1006.16 1006.24 1006.29 1006.28 1006.22 1006.12 1005.99 1005.85 1005.71 1005.60 1005.51 1005.46
Thickness
5654 5650 5645 5641 5638 5634 5630 5627 5624 5622 5619 5617 5614 5611 5609 5606 5604 5602 5601 5601 5599 5598 5598 5599 5599 5599 5599 5600 5600 5599 5599 5598 5597 5599 5600 5602 5603 5603 5604 5604 5604 5605 5606
5648 5644 5640 5636 5632 5628 5624 5621 5619 5616 5614 5611 5608 5606 5604 5601 5599 5597 5596 5595 5593 5592 5592 5592 5592 5593 5592 5593 5593 5593 5593 5593 5592 5592 5594 5595 5597 5598 5597 5597 5598 5599 5600
5643 5639 5634 5630 5626 5623 5620 5617 5614 5611 5608 5606 5603 5601 5598 5596 5594 5593 5591 5590 5588 5587 5586 5586 5586 5586 5585 5586 5587 5588 5588 5589 5588 5587 5588 5589 5590 5591 5590 5591 5592 5593 5594
5638 5633 5628 5625 5621 5618 5615 5612 5609 5606 5603 5601 5599 5596 5594 5592 5590 5589 5587 5585 5583 5583 5582 5581 5580 5580 5580 5581 5582 5582 5583 5582 5582 5581 5581 5583 5584 5585 5584 5584 5585 5587 5589
5633 5628 5625 5621 5618 5614 5611 5608 5605 5602 5599 5597 5594 5592 5590 5588 5587 5584 5583 5582 5579 5578 5578 5577 5577 5577 5577 5577 5578 5577 5577 5576 5576 5576 5576 5577 5578 5579 5579 5580 5580 5582 5584
5629 5625 5622 5618 5614 5611 5608 5605 5601 5598 5596 5593 5591 5588 5586 5584 5582 5581 5579 5577 5576 5574 5573 5573 5574 5574 5574 5575 5576 5576 5575 5574 5573 5572 5572 5573 5574 5576 5576 5576 5575 5575 5577
5626 5622 5618 5615 5611 5608 5605 5602 5598 5595 5593 5590 5587 5584 5581 5580 5579 5578 5576 5574 5572 5571 5570 5570 5571 5572 5571 5571 5572 5573 5573 5573 5573 5571 5571 5572 5573 5575 5574 5573 5572 5572 5574
5623 5619 5616 5612 5608 5605 5601 5598 5595 5593 5590 5587 5584 5581 5579 5578 5577 5575 5574 5572 5570 5569 5568 5567 5567 5567 5568 5567 5568 5568 5569 5569 5570 5570 5570 5572 5573 5573 5572 5572 5572 5571 5573
5620 5617 5614 5610 5606 5602 5599 5596 5593 5591 5587 5585 5583 5580 5577 5576 5575 5573 5571 5568 5567 5566 5566 5565 5565 5564 5565 5564 5564 5563 5564 5566 5568 5569 5569 5570 5571 5571 5571 5569 5568 5567 5568
5618 5615 5612 5609 5605 5601 5597 5594 5592 5589 5586 5584 5582 5580 5577 5574 5573 5571 5569 5566 5564 5563 5563 5563 5563 5562 5561 5560 5559 5559 5559 5562 5564 5565 5566 5568 5569 5570 5570 5569 5568 5566 5566
5617 5614 5610 5608 5604 5600 5596 5593 5590 5587 5584 5582 5580 5578 5576 5574 5572 5570 5568 5564 5562 5561 5560 5560 5560 5560 5559 5558 5557 5556 5558 5559 5560 5560 5562 5564 5566 5568 5570 5570 5569 5568 5567
5615 5612 5609 5606 5603 5601 5595 5592 5589 5586 5582 5580 5577 5576 5575 5574 5572 5570 5567 5565 5562 5559 5559 5559 5559 5558 5558 5557 5556 5557 5558 5557 5557 5557 5559 5561 5563 5565 5568 5569 5570 5569 5570
5612 5610 5607 5605 5602 5599 5595 5591 5588 5585 5582 5579 5577 5575 5574 5573 5571 5570 5568 5566 5563 5560 5559 5558 5558 5558 5558 5558 5558 5558 5558 5557 5556 5556 5557 5560 5562 5564 5566 5567 5569 5569 5569
5611 5608 5606 5603 5601 5598 5595 5593 5589 5586 5583 5580 5578 5575 5574 5572 5571 5569 5567 5565 5563 5560 5558 5558 5558 5558 5558 5558 5558 5558 5558 5557 5555 5555 5557 5559 5561 5561 5562 5564 5564 5566 5565
5611 5608 5605 5603 5600 5598 5596 5593 5591 5589 5587 5583 5580 5578 5574 5572 5573 5571 5567 5564 5562 5559 5557 5556 5556 5556 5556 5557 5558 5558 5558 5557 5556 5556 5556 5557 5558 5559 5560 5561 5561 5561 5560
5611 5608 5605 5603 5601 5598 5595 5594 5594 5592 5591 5588 5585 5581 5579 5577 5575 5572 5568 5566 5563 5560 5556 5554 5554 5554 5554 5555 5555 5556 5557 5557 5558 5557 5557 5556 5556 5557 5558 5558 5558 5557 5557
5612 5609 5606 5604 5601 5599 5596 5593 5592 5593 5594 5591 5589 5586 5582 5579 5576 5573 5570 5566 5563 5560 5555 5554 5554 5554 5554 5554 5554 5554 5555 5556 5556 5555 5555 5555 5555 5555 5554 5554 5554 5553 5553
5614 5612 5608 5605 5603 5600 5598 5596 5594 5592 5591 5591 5591 5588 5585 5581 5578 5574 5570 5566 5564 5561 5557 5556 5555 5556 5555 5554 5553 5553 5553 5553 5552 5552 5552 5552 5551 5551 5550 5550 5550 5549 5549
5615 5612 5609 5607 5604 5602 5600 5598 5597 5594 5592 5591 5590 5589 5587 5583 5579 5576 5571 5565 5564 5562 5560 5558 5557 5556 5554 5553 5552 5551 5550 5550 5549 5548 5548 5547 5547 5546 5545 5545 5545 5545 5544
5616 5615 5612 5608 5606 5604 5602 5600 5598 5596 5594 5592 5590 5588 5586 5582 5578 5576 5572 5567 5564 5563 5561 5559 5557 5556 5553 5551 5550 5548 5547 5546 5545 5543 5542 5542 5541 5540 5539 5539 5538 5538 5538
5617 5615 5614 5611 5608 5606 5604 5602 5600 5597 5595 5593 5591 5590 5586 5581 5578 5575 5572 5569 5565 5563 5560 5558 5555 5552 5550 5548 5546 5544 5542 5540 5538 5537 5536 5535 5535 5534 5533 5533 5532 5531 5531
5619 5616 5614 5612 5610 5608 5606 5604 5602 5599 5596 5594 5592 5589 5586 5580 5576 5573 5570 5568 5566 5562 5559 5555 5551 5548 5545 5542 5539 5536 5534 5532 5531 5530 5529 5528 5527 5527 5526 5525 5525 5524 5523
5620 5618 5615 5614 5612 5610 5608 5605 5603 5600 5597 5594 5591 5587 5583 5578 5574 5571 5568 5564 5561 5558 5555 5551 5546 5542 5538 5535 5531 5528 5526 5524 5523 5521 5520 5520 5519 5519 5518 5517 5517 5517 5516
5622 5620 5617 5615 5613 5610 5608 5605 5603 5600 5597 5593 5589 5585 5581 5576 5572 5568 5564 5561 5557 5554 5550 5545 5540 5535 5531 5527 5524 5521 5518 5516 5515 5514 5512 5511 5511 5511 5510 5509 5509 5508 5507
5624 5621 5618 5616 5613 5611 5608 5606 5603 5600 5596 5592 5588 5583 5578 5574 5569 5565 5560 5556 5552 5547 5542 5537 5532 5528 5524 5520 5517 5514 5511 5509 5507 5505 5504 5503 5502 5501 5501 5500 5500 5499 5499
5625 5623 5620 5617 5614 5612 5608 5605 5601 5598 5594 5590 5585 5580 5575 5571 5566 5561 5556 5551 5546 5541 5536 5531 5526 5522 5518 5514 5510 5507 5504 5502 5500 5498 5496 5494 5493 5492 5492 5491 5491 5490 5489